EHI
1 1 0 0 0 0 0 0 0 0 0 0 0 0 0 0 0 0 0 0 0 0 0 0 0 0 0 0 1 1 1 1 2 2 1 0 0 0 0 1 1 1 0 1 1 1 0 1 0
1 0 0 0 0 0 0 0 0 0 0 0 0 0 0 0 0 0 0 0 0 0 0 0 0 0 0 0 0 1 1 2 2 1 0 0 0 0 0 0 0 0 0 0 0 0 0 1 1
0 0 0 0 0 0 0 0 0 0 0 0 0 0 0 0 0 0 0 0 0 0 0 0 0 1 1 0 0 0 1 1 1 0 0 0 0 0 0 0 0 0 0 0 0 0 0 0 0
0 0 0 0 0 0 0 0 0 0 0 0 0 0 0 0 0 0 0 0 0 0 0 0 1 2 2 1 1 1 1 1 0 0 0 0 0 0 0 0 0 0 0 0 0 0 0 0 0
0 0 0 0 0 0 0 0 0 0 0 0 0 0 0 0 0 0 0 0 0 0 0 0 1 3 3 2 2 2 2 1 0 0 0 0 0 0 0 0 0 0 0 0 0 0 0 0 0
0 0 0 0 0 0 0 0 0 0 0 0 0 0 0 0 0 0 0 0 0 0 0 0 1 2 2 1 1 1 2 1 0 0 0 0 0 0 0 0 0 0 0 0 0 0 0 1 1
0 0 0 0 0 0 0 0 0 0 0 0 0 0 0 0 0 0 0 0 0 0 0 0 1 1 1 0 0 0 0 0 0 0 0 0 0 0 0 0 0 0 0 0 0 0 0 1 1
0 0 0 0 0 0 0 0 0 0 0 0 0 0 0 0 0 0 0 0 0 0 0 0 0 0 0 0 0 0 0 0 0 0 0 0 0 0 0 0 0 0 0 0 0 0 0 0 1
0 0 0 0 0 0 0 0 0 0 0 0 0 0 0 0 0 0 0 0 0 0 0 0 0 0 0 0 0 0 0 0 0 0 0 0 0 0 0 0 0 0 0 1 1 0 0 0 1
0 0 0 0 0 0 0 0 0 0 0 0 0 0 0 0 0 0 0 1 1 0 0 0 0 0 0 0 0 0 0 0 0 0 0 0 0 0 0 0 0 0 0 1 1 0 0 0 0
0 0 0 0 0 0 0 0 0 0 0 0 0 0 0 0 0 0 0 1 1 1 0 0 0 0 0 0 0 0 0 0 0 0 0 0 0 0 0 0 0 0 0 1 1 0 0 0 0
0 0 0 0 0 0 0 0 0 0 0 0 0 0 0 0 0 0 0 1 1 1 1 0 0 0 0 0 0 0 0 0 0 0 0 0 0 0 0 0 0 0 0 0 0 0 0 0 0
0 0 0 0 0 0 0 0 0 0 0 0 0 0 0 0 0 0 0 0 1 2 1 0 0 0 0 0 0 0 0 0 0 0 0 0 0 0 0 0 0 0 0 0 0 0 0 0 0
0 0 0 0 0 0 0 0 0 0 0 0 0 0 0 0 0 0 0 0 1 1 1 0 0 0 0 0 0 0 0 0 0 0 0 0 0 0 0 0 0 0 0 0 0 0 0 0 0
0 0 0 0 0 0 0 0 0 0 0 0 0 0 0 0 0 0 0 0 0 1 2 1 0 0 0 0 0 0 0 0 0 0 0 0 0 0 0 0 0 0 0 0 0 0 0 0 0
0 0 0 0 0 0 0 0 0 0 0 0 0 0 0 0 0 0 0 0 0 1 2 2 1 0 0 0 0 0 0 0 0 0 0 0 0 0 0 0 0 0 0 0 0 0 0 0 0
0 0 0 0 0 0 0 0 0 0 0 0 0 0 0 0 0 0 0 0 0 0 1 1 1 0 0 0 0 0 0 0 0 0 0 0 0 0 0 0 0 0 0 0 0 0 0 0 0
0 0 0 0 0 0 0 0 0 0 0 0 0 0 0 0 0 0 0 0 0 0 0 0 0 0 0 0 0 0 0 0 0 0 0 0 0 0 0 0 0 0 0 0 0 0 0 0 0
0 0 0 0 0 0 0 0 0 0 0 0 0 0 0 0 0 0 0 0 0 0 0 0 0 0 0 0 0 0 0 0 0 0 0 0 0 0 0 0 0 0 0 0 0 0 0 0 0
0 0 0 0 0 0 0 0 0 0 0 0 0 0 0 0 0 0 0 0 0 0 0 0 0 0 0 0 0 0 0 0 0 0 0 0 0 0 0 0 0 0 0 0 0 0 0 0 0
0 0 0 0 0 0 0 0 0 0 0 0 0 0 0 0 0 0 0 0 0 0 0 0 0 0 0 0 0 0 0 0 0 0 0 0 0 0 0 0 0 0 0 0 0 0 0 0 0
0 0 0 0 0 0 0 0 0 0 0 0 0 0 0 0 0 0 0 0 0 0 0 0 0 0 0 0 0 0 0 0 0 0 0 0 0 0 0 0 0 0 0 0 0 0 0 0 0
0 0 0 0 0 0 0 0 0 0 0 0 0 0 0 0 0 0 0 1 0 0 0 0 0 0 0 0 0 0 0 0 0 0 0 0 0 0 0 0 0 0 0 0 0 0 0 0 0
0 0 0 0 0 0 0 0 0 0 0 0 0 0 0 0 0 0 0 0 0 0 0 0 0 0 0 0 0 0 0 0 0 0 0 0 0 0 0 0 0 0 0 0 0 0 0 0 0
0 0 0 0 0 0 0 0 0 0 0 0 0 0 0 0 0 0 0 0 0 0 0 0 0 0 0 0 0 0 0 0 0 0 0 0 0 0 0 0 0 0 0 0 0 0 0 0 0
0 0 0 0 0 0 0 0 0 0 0 0 0 0 0 0 0 0 0 0 0 0 0 0 0 0 0 0 0 0 0 0 0 0 0 0 0 0 0 0 0 0 0 0 0 0 0 0 0
0 0 0 0 0 0 0 0 0 0 0 0 0 0 0 0 0 0 0 0 0 0 0 0 0 0 0 0 0 0 0 0 0 0 0 0 0 0 0 0 0 0 0 0 0 0 0 0 0
0 0 0 0 0 0 0 0 0 0 0 0 0 0 0 0 0 0 0 0 0 0 0 0 0 0 0 0 0 0 0 0 0 0 0 0 0 0 0 0 0 0 0 0 0 0 0 0 0
0 0 0 0 0 0 0 0 0 0 0 0 0 0 0 0 0 0 0 0 0 0 0 0 0 0 0 0 0 0 0 0 0 0 0 0 0 0 0 0 0 0 0 0 0 0 0 0 0
0 0 0 0 0 0 0 0 0 0 0 0 0 0 0 0 0 0 0 0 0 0 0 0 0 0 0 0 0 0 0 0 0 0 0 0 0 0 0 0 0 0 0 0 0 0 0 0 0
Wind_Speed
3 3 3 4 6 6 3 2 1 1 3 2 4 5 6 4 2 2 1 2 2 2 1 2 4 5 6 7 7 7 7 8 8 8 8 8 8 8 8 8 9 9 9 9 9 10 10 9 9
2 2 4 5 6 4 2 2 2 2 3 3 4 5 5 4 2 3 1 1 3 3 2 2 5 6 6 6 6 7 7 7 7 8 8 8 8 8 8 8 8 9 9 9 9 10 10 10 10
2 3 4 5 4 3 2 1 2 3 3 2 3 4 4 2 2 2 2 3 3 2 2 2 6 6 6 6 6 7 7 7 7 8 8 8 8 7 7 7 8 9 9 9 9 9 10 10 10
3 4 5 6 5 1 1 1 2 3 3 4 3 4 3 2 1 3 4 4 4 2 2 2 6 7 6 6 6 7 7 7 7 7 7 8 7 7 7 7 8 8 9 9 9 9 10 10 10
4 5 6 4 3 2 1 1 1 3 2 3 3 4 3 3 3 5 5 4 3 2 2 2 5 6 6 6 6 6 6 7 7 7 7 7 7 8 7 7 8 8 9 9 9 9 10 10 11
5 5 5 3 2 2 2 2 2 4 4 3 4 3 2 1 3 4 4 3 2 2 2 2 4 5 5 5 5 5 6 6 6 6 6 6 6 7 7 7 8 8 8 8 9 9 10 10 10
4 5 4 2 1 2 2 2 2 4 4 2 4 4 1 0 2 3 4 3 2 3 3 2 2 3 4 4 5 5 5 5 5 5 5 6 6 6 6 7 7 8 8 8 9 9 9 10 10
4 5 4 2 2 1 1 2 2 3 3 3 3 5 3 2 3 4 4 3 3 2 2 2 2 3 3 3 4 4 4 4 4 4 4 5 5 5 5 5 6 6 7 8 9 9 9 10 10
4 6 2 2 3 1 1 2 2 2 4 3 3 3 3 6 6 5 4 3 1 2 1 1 2 2 2 2 3 4 4 4 4 3 4 4 3 3 3 4 5 6 7 8 9 9 10 10 10
5 4 2 2 3 3 2 2 1 3 4 3 4 5 6 7 6 5 3 2 1 0 0 1 1 1 1 1 2 2 2 3 3 2 2 2 2 2 3 5 6 7 8 8 9 10 10 7 4
3 3 2 1 2 3 2 2 2 5 2 2 4 6 6 6 5 4 3 2 2 1 1 1 1 1 1 1 1 1 1 2 2 2 2 2 2 2 3 3 4 4 6 4 6 6 4 4 4
4 2 2 1 2 2 2 2 3 2 2 2 5 7 6 6 4 4 3 2 1 1 1 1 1 1 1 1 1 1 1 1 1 1 2 2 2 2 2 2 2 3 2 3 3 3 4 4 4
3 2 3 3 4 3 4 3 3 2 2 5 7 7 6 5 3 2 2 2 1 1 1 1 2 2 1 1 1 1 1 1 1 1 1 2 2 2 2 2 2 2 2 3 3 3 4 4 4
2 4 3 3 3 2 4 3 3 1 3 6 6 5 4 4 3 2 2 2 2 1 1 1 2 2 2 1 1 1 1 1 1 1 1 2 2 2 2 2 2 2 2 2 3 3 4 3 3
3 5 5 3 2 1 4 4 2 1 4 5 4 3 3 2 2 2 2 2 2 1 1 2 2 3 2 2 1 1 1 1 1 1 1 2 2 2 2 2 2 2 2 3 3 4 4 4 4
3 4 3 2 2 1 4 0 2 1 4 4 3 2 2 1 2 1 1 2 1 1 2 2 2 3 3 2 1 1 1 2 1 1 1 2 2 3 2 2 2 2 2 3 3 3 3 4 3
4 2 1 2 2 2 3 1 2 1 4 3 2 2 2 1 0 1 2 2 2 2 2 2 2 3 3 2 2 2 2 2 1 1 1 1 2 2 2 2 2 2 3 3 3 3 3 3 3
1 1 1 0 2 3 2 1 1 0 3 2 2 2 2 2 2 2 1 1 2 2 2 2 3 3 3 3 2 2 3 2 2 1 1 2 2 3 2 2 2 3 3 3 3 3 3 2 2
4 3 1 1 1 2 1 1 2 1 1 1 2 2 2 3 1 0 0 1 2 2 2 2 3 3 3 2 2 2 1 1 2 1 2 2 2 3 3 2 2 2 3 2 3 3 3 2 2
4 3 1 1 2 2 1 2 2 1 2 3 4 4 4 2 0 0 1 1 2 2 2 2 2 3 2 2 2 2 2 1 1 1 2 2 2 2 3 3 2 2 3 3 3 3 2 1 1
1 3 3 2 2 3 2 4 3 2 1 1 2 3 3 4 4 2 2 1 1 2 3 3 3 3 2 3 3 3 3 2 2 2 1 1 2 2 2 2 3 3 3 2 2 2 3 2 1
2 2 4 4 2 1 1 2 5 3 2 2 3 3 4 3 3 3 3 2 2 2 2 3 3 3 3 3 4 4 3 2 1 0 0 1 2 2 2 3 3 3 2 2 2 2 2 3 1
2 2 3 3 2 1 1 1 7 2 3 5 5 4 5 4 4 4 4 4 2 2 2 2 3 3 3 3 4 4 3 2 1 1 2 2 2 2 2 2 3 3 2 2 2 2 2 1 2
4 5 5 4 3 1 2 3 6 4 5 5 4 4 5 5 4 3 3 2 2 1 2 2 3 2 2 3 3 4 4 4 3 2 1 1 1 1 1 2 2 2 2 2 2 2 2 1 2
4 5 3 4 3 4 2 2 7 5 4 5 5 4 4 4 4 4 3 3 3 2 2 2 4 2 2 3 3 3 4 4 4 3 2 2 1 0 0 1 2 2 2 2 2 2 2 2 2
2 5 5 3 3 4 1 4 6 4 2 2 2 3 3 3 4 4 5 5 4 4 3 3 4 3 3 3 3 2 3 3 2 3 3 2 2 2 2 2 2 2 2 3 3 2 2 2 2
4 2 4 5 1 1 4 5 6 2 3 1 1 2 2 3 4 4 4 4 4 4 4 5 5 3 3 3 3 2 2 3 3 2 2 2 2 2 2 2 2 2 2 3 3 2 2 2 2
3 6 4 4 2 2 5 4 4 3 3 1 1 1 2 2 3 3 3 4 4 4 3 3 4 4 3 3 3 3 2 2 3 3 3 2 2 2 2 2 2 2 2 3 3 2 2 2 1
2 3 4 3 3 3 3 6 4 5 4 4 4 3 3 3 4 4 3 3 3 3 3 3 3 3 2 3 3 3 2 2 2 2 2 2 2 2 3 2 2 2 2 2 3 2 2 2 1
3 4 5 3 2 3 3 8 4 3 3 3 4 3 3 3 3 3 3 2 3 3 3 3 3 3 3 2 3 3 2 2 2 2 2 2 2 2 3 3 3 3 2 2 3 2 2 2 2
Wind_Direction
56 75 74 57 55 53 50 359 352 46 53 46 62 75 89 77 82 124 265 124 121 108 100 123 120 113 107 104 104 103 104 104 103 102 100 100 99 96 91 86 84 84 84 81 78 75 72 70 70
89 88 56 59 77 70 23 349 42 61 125 123 73 69 75 66 63 102 89 131 120 111 95 114 119 114 112 109 106 103 102 101 102 104 102 100 97 96 94 89 85 82 81 78 77 75 73 72 69
87 54 75 67 78 117 115 24 82 71 89 82 77 61 76 85 110 143 163 137 111 97 85 110 114 110 109 111 109 105 103 105 105 104 101 99 96 95 94 92 87 84 80 78 78 77 76 73 69
72 45 54 66 68 44 133 140 125 108 65 51 85 67 61 33 149 152 133 126 112 92 82 98 106 110 110 109 111 112 111 109 107 106 103 101 96 96 94 91 87 85 82 79 79 77 75 74 70
60 70 62 57 44 13 4 359 98 101 69 60 84 85 47 7 83 117 126 123 118 101 76 87 102 109 113 114 110 113 115 112 109 102 99 98 97 95 91 89 87 85 84 82 79 76 77 74 69
55 65 77 72 27 6 8 16 86 89 94 91 90 95 45 55 105 123 123 115 114 111 83 63 96 97 100 108 109 105 111 113 112 104 98 95 93 90 87 85 85 85 83 80 78 77 74 70 65
89 82 95 101 64 22 24 26 78 100 99 113 120 101 62 71 130 120 111 106 94 84 72 46 41 60 71 87 95 99 107 112 112 107 100 92 88 84 84 87 84 84 83 79 76 76 73 69 65
109 93 79 77 95 35 6 45 60 90 102 107 114 127 174 194 130 102 89 84 85 84 77 63 48 44 36 39 68 79 90 100 104 102 97 85 71 68 76 80 83 85 81 77 74 74 72 70 66
83 76 101 160 149 149 71 69 35 57 92 77 76 120 148 126 113 99 81 61 70 88 69 82 78 59 42 26 44 57 68 71 77 82 75 65 42 33 46 65 77 78 76 72 72 70 67 65 62
75 100 167 183 163 143 89 87 94 83 72 66 72 76 104 117 125 127 131 142 158 176 216 121 108 84 51 39 42 33 49 48 50 53 59 56 47 34 45 55 69 71 67 65 69 68 64 58 47
86 127 129 88 126 120 94 66 65 110 98 165 150 136 132 131 133 142 155 164 192 206 211 167 155 116 84 51 51 39 42 46 47 45 53 63 54 41 41 45 44 50 55 51 54 56 52 55 53
87 78 117 112 98 94 101 93 76 95 166 152 141 138 138 143 156 168 171 174 161 162 202 204 156 123 107 78 65 69 60 56 55 37 59 80 72 55 49 53 47 50 52 59 57 61 57 59 58
71 68 67 81 73 86 89 83 98 59 84 102 113 122 138 153 171 174 161 146 139 150 174 134 127 122 120 105 91 95 88 74 76 67 65 91 96 86 71 61 56 55 59 70 70 69 65 61 56
98 87 71 60 63 66 92 63 75 56 97 107 120 133 145 157 161 149 139 136 152 173 181 129 124 125 122 122 115 102 93 78 71 82 81 89 98 102 95 78 65 60 64 74 80 80 76 64 60
89 75 45 35 50 70 88 32 23 121 107 112 120 133 143 151 147 163 182 179 181 178 165 150 145 125 127 129 121 106 105 102 91 82 86 95 102 103 103 97 84 79 82 80 77 73 74 70 61
58 59 41 338 44 63 96 69 313 97 120 124 131 140 148 166 172 188 185 179 171 157 159 160 143 130 133 127 103 87 87 95 85 79 80 94 102 106 100 100 91 88 88 88 88 82 78 69 64
40 70 69 331 13 66 100 186 286 85 124 137 154 155 161 156 211 230 212 193 172 164 157 144 121 132 133 115 92 79 75 73 74 75 80 92 95 97 103 105 104 101 94 91 102 85 92 90 78
166 126 116 272 336 70 91 174 292 61 135 154 172 169 179 197 241 247 218 189 158 153 146 130 114 117 112 94 78 67 63 56 57 65 77 88 90 92 100 103 106 107 103 92 95 96 80 90 91
139 130 125 279 323 84 109 223 268 246 144 179 191 193 202 222 261 1 109 138 138 132 132 137 125 120 114 108 110 102 84 57 45 41 66 87 95 99 101 103 104 105 111 116 113 106 91 76 88
126 126 130 14 31 86 61 306 289 226 208 204 200 206 210 221 310 85 89 119 154 160 157 154 145 137 140 136 129 121 115 91 70 38 50 72 98 110 116 114 117 114 110 102 104 111 105 78 62
126 171 177 168 43 40 47 336 310 282 270 249 222 211 208 198 203 201 172 158 159 177 180 174 162 148 146 127 104 87 67 52 41 30 25 32 100 107 108 118 116 113 115 122 124 130 128 133 48
220 216 162 142 106 323 70 299 290 272 283 256 241 227 221 213 201 195 187 181 190 202 178 163 157 151 148 135 132 133 129 134 182 178 96 55 80 98 106 113 114 112 111 119 134 118 124 134 142
182 103 108 115 128 56 28 166 287 302 265 257 242 229 221 207 196 193 194 194 195 180 160 153 145 143 143 140 145 137 129 139 119 91 80 67 52 66 89 110 113 115 115 121 115 104 103 125 143
117 73 60 52 69 343 244 177 276 242 233 245 241 229 217 203 193 190 185 164 158 145 145 142 138 135 137 141 142 148 150 145 129 125 119 80 46 41 62 99 109 119 121 129 132 122 118 112 112
82 86 34 2 8 266 233 201 253 256 239 217 221 224 211 195 185 180 175 171 171 165 161 146 144 147 146 146 155 164 163 157 161 168 162 150 126 111 120 115 122 126 135 128 121 115 111 116 115
148 133 152 197 233 284 289 239 257 274 273 219 192 187 174 178 183 192 192 186 183 181 171 161 157 164 162 163 169 162 159 159 168 171 165 170 178 183 160 139 130 125 121 118 116 107 114 102 108
137 150 157 132 161 290 285 289 302 357 17 37 98 121 179 194 194 199 197 190 187 184 182 178 169 173 176 174 164 153 155 160 168 167 168 179 181 161 143 136 128 121 122 122 119 105 108 105 105
130 144 104 114 147 276 296 283 267 294 297 304 274 230 224 206 199 200 196 197 191 183 175 168 167 175 178 173 170 160 168 169 161 157 172 179 178 155 139 131 124 118 112 111 112 107 106 105 98
105 101 106 115 150 162 275 278 233 227 225 221 234 234 218 208 205 203 201 199 177 154 150 156 159 159 165 170 162 153 163 162 157 162 180 177 167 154 151 151 137 132 127 126 121 119 118 118 107
162 163 145 153 215 174 192 269 277 252 242 222 236 249 238 219 205 195 187 167 159 157 155 165 165 164 170 160 148 147 146 146 153 171 185 159 152 155 158 150 143 144 142 143 144 151 141 145 151